Regional Weather Roundup
Issued by NWS Charleston, WV

Home | Current Version | Previous Version | Text Only | Print | Product List | Glossary Off
Versions: 1 2 3 4 5 6 7 8 9 10 11 12 13 14 15 16 17 18 19 20 21 22 23 24 25 26 27 28 29 30 31 32 33 34 35 36 37 38 39 40 41 42 43 44 45 46

000
ASUS41 KRLX 222210
RWRRLX
West Virginia Regional Weather Roundup
National Weather Service Charleston WV
500 PM EST WED FEB 22 2017

Note: "fair" indicates few or no clouds below 12,000 feet with no
significant weather and/or obstructions to visibility.

WVZ003-222300-
Northern Panhandle of West Virginia

CITY           SKY/WX    TMP DP  RH WIND       PRES   REMARKS
WHEELING       CLOUDY    61  49  64 S10       29.84S
$$

WVZ009-222300-
Northwest West Virginia

CITY           SKY/WX    TMP DP  RH WIND       PRES   REMARKS
PARKERSBURG    CLOUDY    58  52  80 S7        29.88F
$$

WVZ006-222300-
Western West Virginia

CITY           SKY/WX    TMP DP  RH WIND       PRES   REMARKS
HUNTINGTON     CLOUDY    59  54  83 S5        29.86F
$$

WVZ015-222300-
West Central West Virginia

CITY           SKY/WX    TMP DP  RH WIND       PRES   REMARKS
CHARLESTON     CLOUDY    59  54  83 SW5       29.87F
$$

WVZ022-031-222300-
North Central West Virginia

CITY           SKY/WX    TMP DP  RH WIND       PRES   REMARKS
CLARKSBURG     CLOUDY    61  50  67 S8        29.87F
MORGANTOWN     PTSUNNY   64  47  53 SW8       29.86S
$$

WVZ025-035-042-045-222300-
Southern West Virginia

CITY           SKY/WX    TMP DP  RH WIND       PRES   REMARKS
BECKLEY        CLOUDY    54  52  93 CALM      29.92S
LOGAN          CLOUDY    57  55  94 CALM      29.89F
BLUEFIELD      CLOUDY    53  51  93 S3        29.94S
LEWISBURG      LGT RAIN  52  49  90 CALM      29.92F
$$

WVZ047-222300-
Northern Mountains of West Virginia

CITY           SKY/WX    TMP DP  RH WIND       PRES   REMARKS
ELKINS         CLOUDY    55  51  86 CALM      29.90S
$$

WVZ052-222300-
Eastern Panhandle of West Virginia

CITY           SKY/WX    TMP DP  RH WIND       PRES   REMARKS
MARTINSBURG    CLEAR     65  44  46 SE7       29.87S
PETERSBURG     CLOUDY    69  49  50 CALM      29.85F
$$




USA.gov is the U.S. government's official web portal to all federal, state and local government web resources and services.